Lamoni, IA

7:04 PM CST on February 24, 2018 (GMT -0600)
Lamoni Municipal

Weather History for KLWD - October, 2013

Change the Weather History Date:

Tuesday, October 8, 2013

  Actual Average Record
Temperature  
Mean Temperature 61 °F 56 °F  
Max Temperature 75 °F 67 °F 84 °F (1949)
Min Temperature 46 °F 45 °F 24 °F (2000)
Degree Days  
Heating Degree Days 4 10  
Month to date heating degree days 39 69  
Since 1 July heating degree days 87 169  
Cooling Degree Days 0 1  
Month to date cooling degree days 30 8  
Year to date cooling degree days 1093 941  
Growing Degree Days 10 (Base 50)    
Moisture  
Dew Point 44 °F    
Average Humidity 59    
Maximum Humidity 86    
Minimum Humidity 31    
Precipitation  
Precipitation 0.00 in 0.09 in 1.59 in (1982)
Month to date precipitation 0.51 0.53  
Sea Level Pressure  
Sea Level Pressure 30.06 in    
Wind  
Wind Speed 11 mph (South)    
Max Wind Speed 23 mph    
Max Gust Speed 29 mph    
Visibility 10 miles    
Events      
T = Trace of Precipitation, MM = Missing Value Source: NWS Daily Summary

Daily Weather History Graph

Daily Weather History Graph

Search for Another Location

Airport or City:

Trip Planner

Search our weather history database for the weather conditions in past years. The results will help you decide how hot, cold, wet, or windy it might be!

Date:

Astronomy

Oct. 08, 2013 Rise Set
Actual Time 7:19 AM CDT 6:45 PM CDT
Civil Twilight 6:52 AM CDT 7:13 PM CDT
Nautical Twilight 6:20 AM CDT 7:44 PM CDT
Astronomical Twilight 5:48 AM CDT 8:16 PM CDT
Moon 11:15 AM CDT (10/8) 9:22 PM CDT (10/8)
Length of Visible Light 12h 21m
Length of Day
11h 26m
Waxing Crescent, 16% of the Moon is Illuminated
Oct 8
Waxing Crescent
Oct 11
First Quarter
Oct 18
Full
Oct 26
Last Quarter
Nov 3
New

Hourly Weather History & Observations

Time (CDT) Temp. Dew Point Humidity Pressure Visibility Wind Dir Wind Speed Gust Speed Precip Events Conditions
12:53 AM 53.1 °F 44.1 °F 71% 30.07 in 10.0 mi South 8.1 mph - N/A   Clear
1:53 AM 52.0 °F 44.1 °F 74% 30.08 in 10.0 mi South 8.1 mph - N/A   Clear
2:53 AM 51.1 °F 43.0 °F 74% 30.08 in 10.0 mi South 8.1 mph - N/A   Clear
3:53 AM 50.0 °F 43.0 °F 77% 30.07 in 10.0 mi South 8.1 mph - N/A   Clear
4:53 AM 50.0 °F 43.0 °F 77% 30.08 in 10.0 mi South 8.1 mph - N/A   Clear
5:53 AM 48.0 °F 42.1 °F 80% 30.09 in 10.0 mi South 8.1 mph - N/A   Clear
6:53 AM 46.9 °F 42.1 °F 83% 30.09 in 10.0 mi South 6.9 mph - N/A   Clear
7:53 AM 46.9 °F 43.0 °F 86% 30.10 in 10.0 mi South 5.8 mph - N/A   Clear
8:53 AM 52.0 °F 45.0 °F 77% 30.10 in 10.0 mi South 9.2 mph - N/A   Clear
9:53 AM 60.1 °F 46.9 °F 62% 30.10 in 10.0 mi South 9.2 mph - N/A   Clear
10:53 AM 66.9 °F 44.1 °F 44% 30.09 in 10.0 mi SSW 16.1 mph 24.2 mph N/A   Clear
11:53 AM 70.0 °F 43.0 °F 38% 30.08 in 10.0 mi South 17.3 mph 24.2 mph N/A   Clear
12:53 PM 72.0 °F 44.1 °F 37% 30.06 in 10.0 mi South 21.9 mph 28.8 mph N/A   Clear
1:53 PM 73.9 °F 42.1 °F 32% 30.04 in 10.0 mi South 17.3 mph 26.5 mph N/A   Clear
2:53 PM 75.0 °F 43.0 °F 32% 30.03 in 10.0 mi South 17.3 mph 26.5 mph N/A   Clear
3:53 PM 75.0 °F 44.1 °F 33% 30.02 in 10.0 mi South 16.1 mph 28.8 mph N/A   Clear
4:53 PM 73.9 °F 43.0 °F 33% 30.01 in 10.0 mi South 13.8 mph 23.0 mph N/A   Clear
5:53 PM 72.0 °F 44.1 °F 37% 30.01 in 10.0 mi South 11.5 mph 19.6 mph N/A   Clear
6:53 PM 66.9 °F 44.1 °F 44% 30.02 in 10.0 mi South 8.1 mph - N/A   Clear
7:53 PM 64.0 °F 44.1 °F 48% 30.03 in 10.0 mi South 8.1 mph - N/A   Clear
8:53 PM 62.1 °F 45.0 °F 53% 30.04 in 10.0 mi SSE 6.9 mph - N/A   Clear
9:53 PM 60.1 °F 46.0 °F 60% 30.04 in 10.0 mi SSE 6.9 mph - N/A   Clear
10:53 PM 57.9 °F 46.9 °F 67% 30.05 in 10.0 mi South 8.1 mph - N/A   Clear
11:53 PM 57.0 °F 46.9 °F 69% 30.04 in 10.0 mi SSE 6.9 mph - N/A   Clear